Location: Hains Lake
(37.8540°N, 99.8578°W)
Time: 23:30:29
(UTC+00:00)

ISS - Pass Details

Date: 09 March 2021
Orbit: 418 x 422 km, 51.6° (Epoch: 12 April)

Event Time Altitude Azimuth Distance (km) Brightness Sun altitude
Exits shadow 11:43:03 11° 331° (NNW) 1,447 -1.3 -15.8°
Maximum altitude 11:45:51 27° 30° (NNE) 831 -1.9 -15.3°
Drops below altitude 10° 11:48:47 10° 92° (E) 1,493 0.4 -14.7°
Sets 11:51:04 0° 104° (ESE) 2,354 1.5 -14.2°
